星链-31017 (STARLINK-31017 )

导读 | 星芒AI

STARLINK-31017 是 SpaceX 星链(Starlink)卫星互联网项目中的第 31017 颗卫星。该卫星属于星链计划的第二代卫星群,旨在为全球用户提供高速、低延迟的互联网服务。它运行在近地轨道,配备先进通信设备和推进系统,支持更广的覆盖范围和更高的数据传输效率。作为星链网络的重要组成部分,STARLINK-31017 有助于提升偏远地区的网络接入能力,并推动全球数字化发展。

基本信息
目录编号:
58515
目录名称:
STARLINK-31017
国际标识:
2023-191H
轨道中心:
EARTH
卫星名称:
星链-31017
卫星全名:
星链-31017 (STARLINK-31017 )
卫星状态:
在轨 (已飞行694 天)
发射日期:
2023-12-07 UTC
国别 :
美国 (US)
星等 :
--
轨道信息
数据来源 国际轨道数据
星历时间: 2025-10-31T04:41:08+0800
16小时前
查看轨道信息
半长轴: 6861.173km
偏心率: 0.0001276
轨道倾角: 42.996°
近地点辐角 283.328°
升交点赤经 244.353°
平近点角 76.743°
近地点: 482.162km
远地点: 483.914km
周期: 94.266分钟
每日圈数: 15.275844
详细信息
固有亮度:
5
最大亮度:
0.3
卫星平台:
Starlink v2.0 mini
覆盖范围:
全球
运营商:
太空探索技术公司
运营商所在国:
美国
制造商(研发单位):
太空探索技术公司
制造商所在国:
美国
使用方式:
暂无
卫星简介
星链(Starlink)计划是由太空探索技术公司(SpaceX)提出的一个巨型低轨卫星互联网星座项目,计划在2019年至2024年间在太空搭建由约1.2万颗卫星组成的“星链”网络,其中1584颗将部署在地球上空550千米处的近地轨道,并从2020年开始工作。该卫星仍在工作。
2D轨道图
3D轨道图
轨道高度分析图
轨道倾角分析图
轨道综合分析图
查看轨道综合分析图